Regional Weather Roundup
Issued by NWS Austin/San Antonio, TX

Home | Current Version | Previous Version | Text Only | Print | Product List | Glossary On
Versions: 1 2 3 4 5 6 7 8 9 10 11 12 13 14 15 16 17 18 19 20 21 22 23 24 25 26 27 28 29 30 31 32 33 34 35 36 37 38 39 40 41 42 43 44 45 46 47 48 49 50
000
ASUS44 KEWX 172301
RWREWX
SOUTH TEXAS REGIONAL WEATHER ROUNDUP
NATIONAL WEATHER SERVICE AUSTIN/SAN ANTONIO TX
500 PM CST SUN FEB 17 2019

NOTE: "FAIR" INDICATED FEW OR NO CLOUDS BELOW 12,000 FEET WITH NO
SIGNIFICANT WEATHER AND/OR OBSTRUCTIONS TO VISIBILITY.

* - THESE STATIONS ARE NOT NWS OR FAA STATIONS...AND ARE NOT SUBJECT
    TO NWS AND FAA QUALITY CONTROL.

TXZ171-172-183>190-180000-
TEXAS HILL COUNTRY AND EDWARDS PLATEAU

CITY           SKY/WX    TMP DP  RH WIND       PRES   REMARKS
JUNCTION       SUNNY     60  26  27 E8        29.91R
*LLANO         SUNNY     63  32  31 NE9       29.95S
BURNET         SUNNY     59  34  39 N12       29.93R
*HORSESHOE BAY SUNNY     58  34  40 NE8       29.91S
*KERRVILLE     SUNNY     63  25  24 NE13      29.88R
*FREDERICKSBRG SUNNY     60  34  38 NE12      29.90R
*ROCKSPRINGS   SUNNY     63  23  22 VRB7      29.91S
*BOERNE STAGE  SUNNY     63  28  27 N10G16    29.88R
*CASTROVILLE   SUNNY     71  27  19 NE13G21   29.86R
HONDO          SUNNY     74  31  20 NE13      29.83R
*UVALDE        SUNNY     73  30  20 E8        29.82S
DEL RIO        MOSUNNY   74  28  18 NE5       29.81S
LAUGHLIN AFB   MOSUNNY   75  24  15 E3        29.81S
CARRIZO SPRGS  SUNNY     77  30  18 E6        29.79R
*FAITH RANCH   SUNNY     79  28  15 NE10      29.79R
$$

TXZ173-191>194-202-209-217>225-228-180000-
CENTRAL AND SOUTH CENTRAL TEXAS

CITY           SKY/WX    TMP DP  RH WIND       PRES   REMARKS
GEORGETOWN     SUNNY     57  35  43 N12       29.94R
AUSTIN/BERGSTM PTSUNNY   61  39  44 N18       29.90R
AUSTIN/MABRY   SUNNY     60  35  39 N9G17     29.91R
*AUSTIN/EXEC   SUNNY     57  36  44 N17G23    29.91S
*LAGO VISTA    SUNNY     59  26  27 NE10G18   29.91R
SAN MARCOS     SUNNY     61  41  47 NE15      29.90R
NEW BRAUNFELS  SUNNY     66  39  37 NE14      29.86R
RANDOLPH AFB   SUNNY     66  35  32 NE12      29.86R
PT SAN ANTONIO SUNNY     68  34  28 N13       29.84R
SAN ANTONIO    PTSUNNY   67  32  27 N12       29.86R
STINSON FIELD  SUNNY     71  29  21 NE13      29.82R
*LA GRANGE     SUNNY     59  40  49 N10G18    29.87R
*GIDDINGS      SUNNY     60  42  50 N10G17    29.89F
*GONZALES      SUNNY     62  43  51 N12G22    29.86S
$$

TXZ163>164-176>182-195>201-210>213-226-227-235-180000-
SOUTHEAST TEXAS

CITY           SKY/WX    TMP DP  RH WIND       PRES   REMARKS
COLLEGE STN    SUNNY     58  40  51 N16       29.90S
*BRYAN         SUNNY     57  40  54 N12       29.92S
*CALDWELL      SUNNY     57  39  52 N10G20    29.91S
*CROCKETT        N/A     55  39  54 N7        29.94R
*BRENHAM       SUNNY     59  43  56 N13       29.90R
HUNTSVILLE     PTSUNNY   53  42  66 VRB7      29.90R
CONROE         SUNNY     58  45  62 N10G20    29.89R
HOUSTON BUSH   PTSUNNY   62  47  57 N20       29.86R
HOUSTON HOBBY  PTSUNNY   62  47  57 N16       29.84R
*HOUSTON SW AP FAIR      61  50  66 N13G18    29.85R
PEARLAND       PTSUNNY   61  52  72 NE10      29.85R
HOUSTON HOOKS  FAIR      58  46  64 N12       29.87R
ELLINGTON FLD  PTSUNNY   59  52  77 N17       29.86R
SUGAR LAND     FAIR      63  48  58 N16       29.84R
*HOUSTON EXEC  FAIR      59  46  63 N13       29.87S
*CLEVELAND MUN FAIR      59  48  66 N10G16    29.88R
*WHARTON       SUNNY     60  44  54 N13G21    29.85R
*COLUMBUS      FAIR      61  42  48 N12G21    29.87R
*EAGLE LAKE    CLEAR     60  44  54 N17       29.86
$$

TXZ214>216-236>238-180000-
THE UPPER TEXAS COAST

CITY           SKY/WX    TMP DP  RH WIND       PRES   REMARKS
*ORANGE        CLOUDY    53  53 100 N8G17     29.86R
PORT ARTHUR    CLOUDY    54  49  83 N20       29.83R
GALVESTON      CLOUDY    57  52  83 N22G31    29.83R
ANGLETON       PTSUNNY   62  53  72 N15       29.82R
*BAY CITY      SUNNY     64  52  65 N17       29.82R
PALACIOS       SUNNY     66  53  63 N18G29    29.80R
$$

TXZ229>234-239>247-180000-
TEXAS COASTAL BEND AND RIO GRANDE PLAINS

CITY           SKY/WX    TMP DP  RH WIND       PRES   REMARKS
VICTORIA       SUNNY     66  46  48 N18       29.82R
*BEEVILLE      SUNNY     74  38  27 NE17      29.80S
ROCKPORT       SUNNY     69  50  50 N15       29.78R
*PORT ARANSAS  SUNNY     68  56  64 N18       29.79R
*PORT LAVACA   SUNNY     68  51  53 N15G22    29.82R
*INGLESIDE     SUNNY     71  51  47 NE20      29.78R
CORPUS CHRISTI MOSUNNY   73  47  39 NE22      29.77R
CORPUS NAS     SUNNY     71  56  58 NE20      29.77R
*ROBSTOWN      NOT AVBL
ALICE          SUNNY     76  41  28 NE17      29.76S
KINGSVILLE NAS MOSUNNY   76  43  30 NE18G30   29.75S
COTULLA        SUNNY     75  31  19 NE10G21   29.79S
LAREDO         SUNNY     80  31  16 NE16      29.75S
$$

TXZ248>255-180000-
DEEP SOUTH TEXAS

CITY           SKY/WX    TMP DP  RH WIND       PRES   REMARKS
BROWNSVILLE    CLOUDY    68  64  87 N14G23    29.74R
PORT ISABEL    CLOUDY    64  59  83 N23G31    29.74R
HARLINGEN      CLOUDY    69  59  70 NE18      29.75R
*HEBBRONVILLE  SUNNY     76  33  20 NE15G24   29.76S
MCALLEN        CLOUDY    77  66  68 NE8       29.74S
*WESLACO       PTCLDY    72  63  74 E13G18    29.73S
FALFURRIAS     SUNNY     78  42  26 NE12G21   29.75R
EDINBURG       FAIR      78  64  61 NE13      29.74R
*ZAPATA        FAIR      81  36  19 NE9G17    29.77R
$$

TXZ213>215-236>238-242>244-246-247-251-254-255-180000-
CMAN STATIONS

STATION/POSITION TIME  TEMP    WIND        PRES    WAVE
                       AIR SEA DIR/SP/G            HT/PER
                 (UTC) (F)     (DEG/KT/KT) (MB)    (FT/S)
SABINE PASS      2218   56 65  360/ 18/ 26 1011.3
SEA RIM ST PARK  2200   54     360/ 16/ 19 1009.4
NORTH JETTY/GLS  2218   56 60   20/ 21/ 25 1008.8
EAGLE POINT      2218   56 63   30/ 15/ 21 1010.2
MORGANS POINT    2218   57 61  360/ 13/ 17 1010.1
PORT O`CONNOR    2218   61 64   10/ 14/ 20 1008.5
PORT ARANSAS     2200   66 61   10/ 18/ 21 1007.7
MALAQUITE BEACH  2218   65 63   20/ 15/ 18 1007.3
BAFFIN BAY       2218   67 70   20/ 13/ 19 1007.7
PORT ISABEL      2218   64 65  350/ 15/ 20 1006.6
$$




USA.gov is the U.S. government's official web portal to all federal, state and local government web resources and services.